Home > Weather > Meyrin > Past weeks

Flag for Switzerland Weather for the Past 2 Weeks in Meyrin, Geneva, Switzerland

Now
32 °F

Passing clouds.


Feels Like: 29 °F
Forecast: 28 / 40 °F
Wind: 3 mph from West

Location: Geneva Cointrin Airport

Current Time: Feb 11, 2016 at 10:08:57 AM

Latest Report: Feb 11, 2016 at 9:20 AM


Visibility: N/A

Pressure: 29.83 "Hg

Humidity: 93%

Dew point: 30 °F

Location of MeyrinLocation

Historic Weather in Meyrin — Graph

°F

Meyrin Temperature Yesterday

Maximum temperature yesterday: 41 °F (at 3:20 PM)
Minimum temperature yesterday: 34 °F (at 8:20 PM)
Average temperature yesterday: 37 °F

High & Low Weather Summary for the Past Weeks

 TemperatureHumidityPressure
High59 °F (Feb 1, 2:20 PM)100% (Jan 30, 8:50 AM)30.54 "Hg (Jan 30, 8:50 AM)
Low28 °F (Feb 11, 6:50 AM)37% (Feb 9, 7:50 PM)29.45 "Hg (Feb 9, 3:20 PM)
Average44 °F79%30.15 "Hg
* Reported Jan 27 8:20 AM — Feb 11 8:50 AM, Meyrin, Weather by CustomWeather, © 2016

Note: Actual official high and low records may vary slightly from our data, if they occured in-between our weather recording intervals... More about our weather records

Advertising

Meyrin Weather History for the Previous 24 Hours

 ConditionsComfort  
Time TempWeatherWind HumidityBarometerVisibility
8:50 AM
Thu, Feb 11
30 °FFog.5 mph93%29.83 "HgN/A
8:20 AM30 °FFog.1 mph93%29.80 "HgN/A
7:50 AM28 °FPassing clouds.2 mph100%29.80 "HgN/A
7:20 AM28 °FClear.2 mph100%29.83 "Hg10 mi
6:50 AM28 °FPassing clouds.1 mph100%29.80 "HgN/A
6:20 AM30 °FPassing clouds.2 mph93%29.80 "HgN/A
5:20 AM32 °FPartly cloudy.5 mph93%29.83 "HgN/A
4:50 AM32 °FPartly cloudy.6 mph93%29.83 "HgN/A
4:20 AM30 °FPassing clouds.3 mph93%29.83 "HgN/A
3:50 AM30 °FPassing clouds.2 mph93%29.83 "HgN/A
3:20 AM30 °FPassing clouds.1 mph93%29.83 "HgN/A
2:50 AM30 °FPassing clouds.3 mph93%29.83 "HgN/A
1:50 AM32 °FPassing clouds.2 mph93%29.80 "HgN/A
1:20 AM32 °FPassing clouds.1 mph93%29.80 "HgN/A
12:50 AM34 °FPassing clouds.1 mph93%29.80 "HgN/A
12:20 AM34 °FPartly cloudy.1 mph93%29.80 "HgN/A
11:50 PM
Wed, Feb 10
34 °FPartly cloudy.1 mph93%29.80 "HgN/A
11:20 PM34 °FPartly cloudy.1 mph93%29.80 "HgN/A
10:50 PM34 °FSprinkles. Partly cloudy.1 mph93%29.77 "Hg5 mi
10:20 PM34 °FSprinkles. Partly cloudy.6 mph93%29.77 "Hg6 mi
9:50 PM36 °FRain showers. Partly cloudy.6 mph87%29.77 "Hg5 mi
9:20 PM36 °FScattered showers. Passing clouds.2 mph87%29.77 "HgN/A
8:50 PM34 °FScattered showers. Passing clouds.2 mph93%29.77 "HgN/A
8:20 PM34 °FScattered showers. Passing clouds.5 mph93%29.74 "HgN/A
7:50 PM36 °FSprinkles. Partly cloudy.7 mph81%29.74 "Hg6 mi
7:20 PM37 °FScattered showers. Partly cloudy.7 mph70%29.74 "HgN/A
6:50 PM37 °FScattered showers. Partly cloudy.7 mph70%29.74 "HgN/A
6:20 PM37 °FScattered showers. Passing clouds.7 mph65%29.71 "HgN/A
5:50 PM37 °FScattered showers. Partly sunny.9 mph70%29.71 "HgN/A
5:20 PM37 °FScattered showers. Broken clouds.16 mph70%29.71 "HgN/A
4:50 PM41 °FScattered showers. Partly sunny.10 mph57%29.71 "HgN/A
4:20 PM39 °FScattered showers. Broken clouds.12 mph65%29.71 "HgN/A
3:50 PM41 °FScattered showers. Partly sunny.13 mph57%29.68 "HgN/A
3:20 PM41 °FScattered showers. Partly sunny.13 mph61%29.68 "HgN/A
2:50 PM39 °FPartly sunny.12 mph65%29.68 "HgN/A
2:20 PM39 °FPartly sunny.13 mph61%29.71 "HgN/A
1:50 PM39 °FPartly sunny.13 mph61%29.71 "HgN/A
1:20 PM39 °FPartly sunny.14 mph61%29.71 "HgN/A
12:50 PM39 °FScattered showers. Broken clouds.13 mph65%29.71 "HgN/A
12:20 PM37 °FLight snow. Broken clouds.6 mph75%29.71 "HgN/A
11:50 AM37 °FLight snow. Partly sunny.13 mph75%29.71 "HgN/A
11:20 AM36 °FScattered showers. Partly sunny.15 mph81%29.71 "HgN/A
10:50 AM37 °FScattered showers. Partly sunny.10 mph75%29.71 "HgN/A
10:20 AM36 °FScattered showers. Partly sunny.12 mph81%29.71 "HgN/A
Weather by CustomWeather, © 2016

See weather overviewHow to use our weather pages